Location: Unspecified
(0.0000°N, 0.0000°E)
Time: 11:43:19
(UTC+00:00)

Vanguard 2 Rocket - Pass Details

Date: 15 December 2017
Orbit: 556 x 3326 km, 32.9° (Epoch: 17 January)

Event Time Altitude Azimuth Distance (km) Brightness Sun altitude
Rises 20:49:57 0° 314° (NW) 5,738 11.1 -39.3°
Reaches altitude 10° 20:56:05 10° 334° (NNW) 5,274 10.7 -40.6°
Enters shadow 21:00:49 15° 352° (N) 5,204 10.5 -41.6°
